| time (UTC) | temp C | wind direction | speed KPH | gust KPH | rain 1hr cm | rain 24hr cm | rain mn cm | humidity % | barometer mb |
| 20260506033605 | 22 | 257 | 8.0 | 19.3 | 0.00 | 0.05 | 0.05 | 53 | 1009.7 |
| 20260506033105 | 22 | 288 | 1.6 | 19.3 | 0.00 | 0.05 | 0.05 | 52 | 1009.7 |
| 20260506032604 | 22 | 237 | 8.0 | 19.3 | 0.00 | 0.05 | 0.05 | 52 | 1009.7 |
| 20260506032104 | 22 | 255 | 4.8 | 12.9 | 0.00 | 0.05 | 0.05 | 51 | 1009.8 |
| 20260506031604 | 22 | 228 | 4.8 | 11.3 | 0.00 | 0.05 | 0.05 | 50 | 1009.7 |
| 20260506031104 | 22 | 259 | 4.8 | 14.5 | 0.00 | 0.05 | 0.05 | 50 | 1009.6 |
| 20260506030604 | 22 | 282 | 4.8 | 11.3 | 0.00 | 0.05 | 0.05 | 50 | 1009.6 |
| 20260506030104 | 23 | 277 | 3.2 | 11.3 | 0.00 | 0.05 | 0.05 | 49 | 1009.6 |
| 20260506025605 | 23 | 312 | 4.8 | 22.5 | 0.00 | 0.05 | 0.05 | 49 | 1009.6 |
| 20260506025104 | 23 | 275 | 4.8 | 22.5 | 0.00 | 0.05 | 0.05 | 48 | 1009.5 |
| 20260506024604 | 23 | 265 | 4.8 | 19.3 | 0.00 | 0.05 | 0.05 | 48 | 1009.4 |
| 20260506024104 | 23 | 218 | 8.0 | 25.7 | 0.00 | 0.05 | 0.05 | 48 | 1009.5 |
| 20260506023604 | 23 | 242 | 9.7 | 20.9 | 0.00 | 0.05 | 0.05 | 47 | 1009.4 |
| 20260506023104 | 23 | 258 | 6.4 | 24.1 | 0.00 | 0.05 | 0.05 | 47 | 1009.4 |
| 20260506022604 | 23 | 263 | 4.8 | 20.9 | 0.00 | 0.05 | 0.05 | 47 | 1009.4 |
| 20260506022104 | 23 | 253 | 6.4 | 19.3 | 0.00 | 0.05 | 0.05 | 47 | 1009.4 |
| 20260506021604 | 23 | 251 | 8.0 | 24.1 | 0.00 | 0.05 | 0.05 | 47 | 1009.4 |
| 20260506021105 | 23 | 244 | 8.0 | 24.1 | 0.00 | 0.05 | 0.05 | 47 | 1009.4 |
| 20260506020605 | 23 | 228 | 9.7 | 29.0 | 0.00 | 0.05 | 0.05 | 46 | 1009.3 |
| 20260506020104 | 23 | 241 | 8.0 | 16.1 | 0.00 | 0.05 | 0.05 | 46 | 1009.4 |
| 20260506015604 | 23 | 249 | 9.7 | 32.2 | 0.00 | 0.05 | 0.05 | 45 | 1009.3 |
| 20260506015104 | 23 | 231 | 8.0 | 22.5 | 0.00 | 0.05 | 0.05 | 45 | 1009.3 |
| 20260506014604 | 23 | 251 | 4.8 | 19.3 | 0.00 | 0.05 | 0.05 | 44 | 1009.3 |
| 20260506014104 | 23 | 253 | 3.2 | 9.7 | 0.00 | 0.05 | 0.05 | 44 | 1009.3 |
| 20260506013604 | 23 | 252 | 4.8 | 12.9 | 0.00 | 0.05 | 0.05 | 44 | 1009.3 |
| 20260506013104 | 24 | 247 | 3.2 | 11.3 | 0.00 | 0.05 | 0.05 | 43 | 1009.2 |
| 20260506012605 | 24 | 239 | 4.8 | 14.5 | 0.00 | 0.05 | 0.05 | 42 | 1009.1 |
| 20260506011604 | 24 | 241 | 4.8 | 9.7 | 0.00 | 0.05 | 0.05 | 42 | 1009.1 |
| 20260506011104 | 24 | 253 | 3.2 | 4.8 | 0.00 | 0.05 | 0.05 | 42 | 1009.0 |
| 20260506010604 | 24 | 264 | 4.8 | 12.9 | 0.00 | 0.05 | 0.05 | 42 | 1008.9 |
| 20260506010104 | 24 | 243 | 3.2 | 12.9 | 0.00 | 0.05 | 0.05 | 42 | 1008.8 |
| 20260506005605 | 24 | 246 | 3.2 | 12.9 | 0.00 | 0.05 | 0.05 | 42 | 1008.9 |
| 20260506005105 | 24 | 243 | 1.6 | 4.8 | 0.00 | 0.05 | 0.05 | 42 | 1008.9 |
| 20260506004604 | 24 | 250 | 3.2 | 11.3 | 0.00 | 0.05 | 0.05 | 41 | 1008.9 |
| 20260506003604 | 24 | 262 | 4.8 | 24.1 | 0.00 | 0.05 | 0.05 | 41 | 1008.8 |
| 20260506003104 | 24 | 272 | 3.2 | 8.0 | 0.00 | 0.05 | 0.05 | 41 | 1008.8 |
| 20260506002604 | 24 | 239 | 3.2 | 8.0 | 0.00 | 0.05 | 0.05 | 41 | 1008.7 |
| 20260506001104 | 24 | 272 | 4.8 | 16.1 | 0.00 | 0.05 | 0.05 | 40 | 1008.6 |
| 20260506000605 | 24 | 252 | 3.2 | 20.9 | 0.00 | 0.05 | 0.05 | 39 | 1008.6 |
| 20260506000105 | 25 | 273 | 4.8 | 14.5 | 0.00 | 0.05 | 0.05 | 39 | 1008.5 |
| 20260505235605 | 25 | 257 | 8.0 | 22.5 | 0.00 | 0.05 | 0.05 | 39 | 1008.5 |
| 20260505235104 | 25 | 246 | 8.0 | 24.1 | 0.00 | 0.05 | 0.05 | 38 | 1008.5 |
| 20260505234606 | 25 | 270 | 8.0 | 22.5 | 0.00 | 0.05 | 0.05 | 38 | 1008.4 |
| 20260505234105 | 25 | 245 | 4.8 | 19.3 | 0.00 | 0.05 | 0.05 | 37 | 1008.3 |
| 20260505233604 | 25 | 263 | 8.0 | 27.4 | 0.00 | 0.05 | 0.05 | 37 | 1008.2 |
| 20260505233104 | 25 | 264 | 4.8 | 32.2 | 0.00 | 0.05 | 0.05 | 37 | 1008.2 |
| 20260505232104 | 25 | 273 | 9.7 | 22.5 | 0.00 | 0.05 | 0.05 | 37 | 1008.0 |
| 20260505231605 | 26 | 272 | 11.3 | 20.9 | 0.00 | 0.05 | 0.05 | 37 | 1008.0 |
| 20260505231104 | 26 | 242 | 6.4 | 19.3 | 0.00 | 0.05 | 0.05 | 37 | 1008.0 |
| 20260505230604 | 26 | 259 | 9.7 | 29.0 | 0.00 | 0.05 | 0.05 | 36 | 1007.9 |
| 20260505230104 | 26 | 251 | 16.1 | 35.4 | 0.00 | 0.05 | 0.05 | 36 | 1007.8 |
| 20260505225106 | 26 | 264 | 11.3 | 32.2 | 0.00 | 0.05 | 0.05 | 36 | 1007.6 |
| 20260505224605 | 26 | 280 | 11.3 | 32.2 | 0.00 | 0.05 | 0.05 | 35 | 1007.6 |
| 20260505224104 | 26 | 243 | 6.4 | 32.2 | 0.00 | 0.05 | 0.05 | 37 | 1007.5 |
| 20260505223609 | 26 | 249 | 8.0 | 16.1 | 0.00 | 0.05 | 0.05 | 36 | 1007.5 |
| 20260505223104 | 26 | 251 | 4.8 | 16.1 | 0.00 | 0.05 | 0.05 | 36 | 1007.4 |
| 20260505222604 | 26 | 276 | 16.1 | 37.0 | 0.00 | 0.05 | 0.05 | 36 | 1007.4 |
| 20260505222106 | 27 | 288 | 9.7 | 27.4 | 0.00 | 0.05 | 0.05 | 36 | 1007.4 |
| 20260505220605 | 27 | 266 | 4.8 | 32.2 | 0.00 | 0.05 | 0.05 | 37 | 1007.1 |
| 20260505220105 | 27 | 263 | 6.4 | 16.1 | 0.00 | 0.05 | 0.05 | 36 | 1007.1 |
| 20260505215604 | 26 | 259 | 6.4 | 29.0 | 0.00 | 0.05 | 0.05 | 37 | 1007.0 |
| 20260505214105 | 27 | 255 | 4.8 | 27.4 | 0.00 | 0.05 | 0.05 | 36 | 1007.1 |
| 20260505213605 | 27 | 252 | 8.0 | 20.9 | 0.00 | 0.05 | 0.05 | 38 | 1007.0 |
| 20260505212603 | 27 | 246 | 9.7 | 19.3 | 0.00 | 0.05 | 0.05 | 37 | 1007.0 |
| 20260505211604 | 27 | 240 | 8.0 | 22.5 | 0.00 | 0.05 | 0.05 | 35 | 1006.9 |
| 20260505211104 | 28 | 254 | 8.0 | 27.4 | 0.00 | 0.05 | 0.05 | 36 | 1006.8 |
| 20260505210604 | 28 | 253 | 12.9 | 32.2 | 0.00 | 0.05 | 0.05 | 35 | 1006.7 |
| 20260505210105 | 28 | 279 | 16.1 | 33.8 | 0.00 | 0.05 | 0.05 | 34 | 1006.7 |
| 20260505205605 | 28 | 262 | 12.9 | 32.2 | 0.00 | 0.05 | 0.05 | 36 | 1006.5 |
| 20260505205105 | 28 | 268 | 9.7 | 32.2 | 0.00 | 0.05 | 0.05 | 37 | 1006.5 |
| 20260505204605 | 28 | 225 | 9.7 | 19.3 | 0.00 | 0.05 | 0.05 | 36 | 1006.5 |
| 20260505204104 | 28 | 259 | 11.3 | 19.3 | 0.00 | 0.05 | 0.05 | 37 | 1006.5 |
| 20260505203104 | 29 | 235 | 6.4 | 19.3 | 0.00 | 0.05 | 0.05 | 37 | 1006.6 |
| 20260505202104 | 28 | 269 | 8.0 | 20.9 | 0.00 | 0.05 | 0.05 | 37 | 1006.8 |
| 20260505201109 | 28 | 269 | 14.5 | 24.1 | 0.00 | 0.05 | 0.05 | 36 | 1007.0 |
| 20260505200105 | 28 | 237 | 12.9 | 20.9 | 0.00 | 0.05 | 0.05 | 35 | 1007.0 |
| 20260505195604 | 28 | 254 | 9.7 | 27.4 | 0.00 | 0.05 | 0.05 | 36 | 1006.9 |
| 20260505195105 | 28 | 238 | 8.0 | 12.9 | 0.00 | 0.05 | 0.05 | 38 | 1007.1 |
| 20260505194604 | 28 | 259 | 14.5 | 32.2 | 0.00 | 0.05 | 0.05 | 37 | 1007.1 |
| 20260505194104 | 28 | 266 | 11.3 | 25.7 | 0.00 | 0.05 | 0.05 | 36 | 1007.0 |
| 20260505193604 | 28 | 267 | 4.8 | 32.2 | 0.00 | 0.05 | 0.05 | 38 | 1007.2 |
| 20260505193104 | 28 | 256 | 14.5 | 38.6 | 0.00 | 0.05 | 0.05 | 35 | 1007.3 |
| 20260505192604 | 28 | 259 | 8.0 | 24.1 | 0.00 | 0.05 | 0.05 | 36 | 1007.3 |
| 20260505192105 | 28 | 253 | 12.9 | 33.8 | 0.00 | 0.05 | 0.05 | 36 | 1007.4 |
| 20260505191604 | 28 | 246 | 11.3 | 35.4 | 0.00 | 0.05 | 0.05 | 37 | 1007.5 |
| 20260505191104 | 28 | 249 | 8.0 | 24.1 | 0.00 | 0.05 | 0.05 | 37 | 1007.5 |
| 20260505190604 | 28 | 251 | 8.0 | 24.1 | 0.00 | 0.05 | 0.05 | 41 | 1007.5 |
| 20260505190105 | 27 | 238 | 9.7 | 19.3 | 0.00 | 0.05 | 0.05 | 38 | 1007.6 |
| 20260505185105 | 28 | 238 | 8.0 | 20.9 | 0.00 | 0.05 | 0.05 | 40 | 1007.5 |
| 20260505184604 | 28 | 275 | 6.4 | 32.2 | 0.00 | 0.05 | 0.05 | 41 | 1007.7 |
| 20260505184104 | 28 | 254 | 8.0 | 32.2 | 0.00 | 0.05 | 0.05 | 44 | 1007.8 |
| 20260505183605 | 27 | 270 | 11.3 | 25.7 | 0.00 | 0.05 | 0.05 | 42 | 1007.9 |
| 20260505183104 | 27 | 272 | 9.7 | 20.9 | 0.00 | 0.05 | 0.05 | 42 | 1008.1 |
| 20260505182605 | 27 | 247 | 8.0 | 22.5 | 0.00 | 0.05 | 0.05 | 42 | 1008.0 |
| 20260505182104 | 27 | 292 | 4.8 | 19.3 | 0.00 | 0.05 | 0.05 | 41 | 1008.2 |
| 20260505181604 | 27 | 287 | 8.0 | 16.1 | 0.00 | 0.05 | 0.05 | 40 | 1008.3 |
| 20260505180604 | 28 | 303 | 12.9 | 27.4 | 0.00 | 0.05 | 0.05 | 38 | 1008.4 |
| 20260505180104 | 28 | 294 | 14.5 | 32.2 | 0.00 | 0.05 | 0.05 | 41 | 1008.3 |
| 20260505175104 | 28 | 298 | 14.5 | 40.2 | 0.00 | 0.05 | 0.05 | 41 | 1008.4 |
| 20260505174604 | 28 | 292 | 19.3 | 35.4 | 0.00 | 0.05 | 0.05 | 38 | 1008.5 |
| 20260505174104 | 28 | 283 | 4.8 | 27.4 | 0.00 | 0.05 | 0.05 | 42 | 1008.4 |
| 20260505173604 | 28 | 285 | 12.9 | 22.5 | 0.00 | 0.05 | 0.05 | 40 | 1008.4 |
| 20260505173105 | 28 | 314 | 14.5 | 33.8 | 0.00 | 0.05 | 0.05 | 42 | 1008.5 |
| 20260505172104 | 28 | 299 | 1.6 | 24.1 | 0.00 | 0.05 | 0.05 | 42 | 1008.3 |
| 20260505171604 | 27 | 291 | 11.3 | 32.2 | 0.00 | 0.05 | 0.05 | 42 | 1008.5 |
| 20260505171104 | 27 | 224 | 14.5 | 32.2 | 0.00 | 0.05 | 0.05 | 42 | 1008.4 |
| 20260505170605 | 27 | 269 | 14.5 | 27.4 | 0.00 | 0.05 | 0.05 | 42 | 1008.6 |
| 20260505165604 | 27 | 274 | 9.7 | 20.9 | 0.00 | 0.05 | 0.05 | 43 | 1008.8 |
| 20260505164604 | 27 | 309 | 12.9 | 27.4 | 0.00 | 0.05 | 0.05 | 41 | 1009.1 |
| 20260505164104 | 27 | 299 | 3.2 | 19.3 | 0.00 | 0.05 | 0.05 | 47 | 1009.1 |
| 20260505163104 | 27 | 258 | 6.4 | 20.9 | 0.00 | 0.05 | 0.05 | 45 | 1009.2 |
| 20260505162604 | 26 | 280 | 14.5 | 32.2 | 0.00 | 0.05 | 0.05 | 44 | 1009.5 |
| 20260505162104 | 26 | 291 | 19.3 | 32.2 | 0.00 | 0.05 | 0.05 | 42 | 1009.7 |
| 20260505161604 | 26 | 289 | 11.3 | 20.9 | 0.00 | 0.05 | 0.05 | 44 | 1009.7 |
| 20260505160104 | 26 | 290 | 16.1 | 27.4 | 0.00 | 0.05 | 0.05 | 43 | 1010.0 |
| 20260505153104 | 26 | 334 | 8.0 | 29.0 | 0.00 | 0.05 | 0.05 | 47 | 1010.0 |
| 20260505152104 | 26 | 300 | 16.1 | 24.1 | 0.00 | 0.05 | 0.05 | 46 | 1010.2 |
| 20260505151604 | 25 | 302 | 9.7 | 20.9 | 0.00 | 0.05 | 0.05 | 48 | 1010.0 |
| 20260505151103 | 25 | 312 | 12.9 | 32.2 | 0.00 | 0.05 | 0.05 | 46 | 1009.8 |
| 20260505150604 | 25 | 312 | 17.7 | 29.0 | 0.00 | 0.05 | 0.05 | 46 | 1009.9 |
| 20260505150105 | 25 | 301 | 4.8 | 27.4 | 0.00 | 0.05 | 0.05 | 50 | 1010.0 |
| 20260505140604 | 22 | 148 | 3.2 | 4.8 | 0.00 | 0.05 | 0.05 | 63 | 1010.5 |
| 20260505140104 | 22 | 151 | 1.6 | 4.8 | 0.00 | 0.05 | 0.05 | 64 | 1010.6 |
| 20260505130105 | 18 | 132 | 1.6 | 4.8 | 0.00 | 0.05 | 0.05 | 74 | 1010.7 |
| 20260505124104 | 17 | 142 | 1.6 | 4.8 | 0.00 | 0.05 | 0.05 | 79 | 1010.5 |
| 20260505123604 | 17 | 163 | 1.6 | 3.2 | 0.00 | 0.05 | 0.05 | 80 | 1010.5 |
| 20260505123103 | 16 | 163 | 0.0 | 0.0 | 0.00 | 0.05 | 0.05 | 80 | 1010.6 |
| 20260505122604 | 15 | 163 | 0.0 | 0.0 | 0.00 | 0.05 | 0.05 | 82 | 1010.6 |
| 20260505122104 | 15 | 163 | 0.0 | 0.0 | 0.00 | 0.05 | 0.05 | 83 | 1010.6 |
| 20260505121605 | 15 | 163 | 0.0 | 1.6 | 0.00 | 0.05 | 0.05 | 83 | 1010.7 |
| 20260505120605 | 15 | 179 | 3.2 | 4.8 | 0.03 | 0.05 | 0.05 | 85 | 1010.9 |
| 20260505120105 | 15 | 120 | 0.0 | 4.8 | 0.03 | 0.05 | 0.05 | 86 | 1011.0 |
| 20260505115604 | 15 | 37 | 1.6 | 4.8 | 0.05 | 0.05 | 0.05 | 86 | 1010.8 |
| 20260505115104 | 14 | 357 | 1.6 | 4.8 | 0.05 | 0.05 | 0.05 | 86 | 1010.7 |
| 20260505114605 | 14 | 125 | 0.0 | 1.6 | 0.05 | 0.05 | 0.05 | 85 | 1010.9 |
| 20260505113604 | 14 | 125 | 3.2 | 4.8 | 0.05 | 0.05 | 0.05 | 84 | 1010.8 |
| 20260505113104 | 14 | 125 | 0.0 | 3.2 | 0.05 | 0.05 | 0.05 | 83 | 1010.8 |
| 20260505112605 | 14 | 125 | 1.6 | 4.8 | 0.05 | 0.05 | 0.05 | 82 | 1010.8 |
| 20260505111604 | 15 | 223 | 3.2 | 14.5 | 0.05 | 0.05 | 0.05 | 82 | 1010.6 |
| 20260505110603 | 14 | 271 | 4.8 | 20.9 | 0.03 | 0.03 | 0.03 | 82 | 1009.8 |
| 20260505110104 | 14 | 235 | 4.8 | 14.5 | 0.03 | 0.03 | 0.03 | 80 | 1010.8 |
| 20260505102104 | 12 | 194 | 0.0 | 3.2 | 0.00 | 0.00 | 0.00 | 80 | 1011.1 |
| 20260505101103 | 12 | 194 | 0.0 | 0.0 | 0.00 | 0.00 | 0.00 | 80 | 1011.2 |
| 20260505100604 | 12 | 194 | 0.0 | 0.0 | 0.00 | 0.00 | 0.00 | 80 | 1011.0 |
| 20260505100104 | 11 | 194 | 0.0 | 0.0 | 0.00 | 0.00 | 0.00 | 80 | 1011.0 |
| 20260505095604 | 11 | 194 | 0.0 | 0.0 | 0.00 | 0.00 | 0.00 | 80 | 1010.8 |
| 20260505094604 | 11 | 194 | 0.0 | 0.0 | 0.00 | 0.00 | 0.00 | 79 | 1010.6 |
| 20260505092603 | 12 | 194 | 0.0 | 0.0 | 0.00 | 0.00 | 0.00 | 77 | 1010.2 |
| 20260505092103 | 12 | 194 | 0.0 | 0.0 | 0.00 | 0.00 | 0.00 | 76 | 1010.1 |
| 20260505091604 | 12 | 194 | 0.0 | 0.0 | 0.00 | 0.00 | 0.00 | 75 | 1010.0 |
| 20260505091104 | 12 | 194 | 0.0 | 0.0 | 0.00 | 0.00 | 0.00 | 75 | 1010.1 |
| 20260505090604 | 12 | 194 | 0.0 | 0.0 | 0.00 | 0.00 | 0.00 | 74 | 1010.0 |
| 20260505090104 | 13 | 194 | 0.0 | 0.0 | 0.00 | 0.00 | 0.00 | 73 | 1010.1 |
| 20260505085604 | 13 | 194 | 0.0 | 0.0 | 0.00 | 0.00 | 0.00 | 73 | 1010.1 |
| 20260505085104 | 13 | 194 | 0.0 | 0.0 | 0.00 | 0.00 | 0.00 | 72 | 1010.2 |
| 20260505084604 | 13 | 194 | 0.0 | 3.2 | 0.00 | 0.00 | 0.00 | 72 | 1010.3 |
| 20260505084104 | 13 | 228 | 0.0 | 1.6 | 0.00 | 0.00 | 0.00 | 72 | 1010.3 |
| 20260505083103 | 13 | 237 | 0.0 | 3.2 | 0.00 | 0.00 | 0.00 | 71 | 1010.3 |
| 20260505082604 | 13 | 278 | 0.0 | 0.0 | 0.00 | 0.00 | 0.00 | 71 | 1010.4 |
| 20260505082104 | 13 | 272 | 0.0 | 0.0 | 0.00 | 0.00 | 0.00 | 70 | 1010.3 |
| 20260505081603 | 13 | 272 | 0.0 | 1.6 | 0.00 | 0.00 | 0.00 | 69 | 1010.2 |
| 20260505081103 | 14 | 272 | 0.0 | 1.6 | 0.00 | 0.00 | 0.00 | 69 | 1010.2 |
| 20260505080605 | 14 | 278 | 0.0 | 3.2 | 0.00 | 0.00 | 0.00 | 69 | 1010.1 |
| 20260505080104 | 14 | 280 | 1.6 | 8.0 | 0.00 | 0.00 | 0.00 | 69 | 1010.2 |
| 20260505075604 | 14 | 254 | 1.6 | 4.8 | 0.00 | 0.00 | 0.00 | 69 | 1010.3 |
| 20260505075104 | 14 | 252 | 3.2 | 8.0 | 0.00 | 0.00 | 0.00 | 68 | 1010.3 |
| 20260505074603 | 14 | 258 | 1.6 | 3.2 | 0.00 | 0.00 | 0.00 | 68 | 1010.4 |
| 20260505074104 | 15 | 280 | 3.2 | 8.0 | 0.00 | 0.00 | 0.00 | 68 | 1010.4 |
| 20260505073605 | 15 | 259 | 1.6 | 4.8 | 0.00 | 0.00 | 0.00 | 68 | 1010.4 |
| 20260505073104 | 15 | 255 | 0.0 | 4.8 | 0.00 | 0.00 | 0.00 | 67 | 1010.4 |
| 20260505072104 | 15 | 239 | 3.2 | 16.1 | 0.00 | 0.00 | 0.00 | 67 | 1010.4 |
| 20260505071605 | 15 | 250 | 1.6 | 16.1 | 0.00 | 0.00 | 0.00 | 66 | 1010.3 |
| 20260505071105 | 15 | 264 | 3.2 | 8.0 | 0.00 | 0.00 | 0.00 | 66 | 1010.4 |
| 20260505070604 | 15 | 298 | 3.2 | 9.7 | 0.00 | 0.00 | 0.00 | 66 | 1010.4 |
| 20260505070104 | 15 | 295 | 1.6 | 4.8 | 0.00 | 0.00 | 0.00 | 65 | 1010.4 |
| 20260505065104 | 15 | 259 | 0.0 | 9.7 | 0.00 | 0.00 | 0.00 | 64 | 1010.3 |
| 20260505064605 | 15 | 251 | 3.2 | 12.9 | 0.00 | 0.00 | 0.00 | 63 | 1010.2 |
| 20260505064104 | 15 | 272 | 4.8 | 12.9 | 0.00 | 0.00 | 0.00 | 63 | 1010.3 |
| 20260505063603 | 15 | 219 | 8.0 | 14.5 | 0.00 | 0.00 | 0.00 | 63 | 1010.3 |
| 20260505063104 | 15 | 204 | 3.2 | 8.0 | 0.00 | 0.00 | 0.00 | 63 | 1010.2 |
| 20260505062604 | 15 | 229 | 3.2 | 9.7 | 0.00 | 0.00 | 0.00 | 62 | 1010.2 |
| 20260505062104 | 15 | 217 | 3.2 | 9.7 | 0.00 | 0.00 | 0.00 | 62 | 1010.3 |
| 20260505061604 | 15 | 230 | 3.2 | 11.3 | 0.00 | 0.00 | 0.00 | 62 | 1010.3 |
| 20260505060605 | 15 | 249 | 4.8 | 11.3 | 0.00 | 0.00 | 0.00 | 61 | 1010.4 |
| 20260505060105 | 15 | 243 | 3.2 | 9.7 | 0.00 | 0.00 | 0.00 | 60 | 1010.5 |
| 20260505055604 | 15 | 271 | 8.0 | 16.1 | 0.00 | 0.00 | 0.00 | 60 | 1010.5 |
| 20260505055104 | 15 | 304 | 0.0 | 3.2 | 0.00 | 0.00 | 0.00 | 59 | 1010.5 |
| 20260505054605 | 15 | 294 | 3.2 | 11.3 | 0.00 | 0.00 | 0.00 | 59 | 1010.5 |
| 20260505054105 | 15 | 281 | 3.2 | 12.9 | 0.00 | 0.00 | 0.00 | 59 | 1010.6 |
| 20260505053603 | 16 | 258 | 4.8 | 11.3 | 0.00 | 0.00 | 0.00 | 58 | 1010.6 |
| 20260505053104 | 16 | 282 | 3.2 | 12.9 | 0.00 | 0.00 | 0.00 | 58 | 1010.6 |
| 20260505051604 | 15 | 281 | 4.8 | 9.7 | 0.00 | 0.00 | 0.00 | 58 | 1010.5 |
| 20260505051104 | 16 | 290 | 1.6 | 12.9 | 0.00 | 0.00 | 0.00 | 57 | 1010.5 |
| 20260505050604 | 16 | 252 | 1.6 | 4.8 | 0.00 | 0.00 | 0.00 | 57 | 1010.5 |
| 20260505050105 | 16 | 306 | 3.2 | 9.7 | 0.00 | 0.00 | 0.00 | 56 | 1010.4 |
| 20260505041604 | 16 | 281 | 3.2 | 12.9 | 0.00 | 0.00 | 0.00 | 56 | 1010.7 |
| 20260505041104 | 16 | 276 | 0.0 | 1.6 | 0.00 | 0.00 | 0.00 | 56 | 1010.6 |
| 20260505040604 | 16 | 276 | 1.6 | 8.0 | 0.00 | 0.00 | 0.00 | 55 | 1010.7 |
| 20260505040104 | 16 | 242 | 3.2 | 14.5 | 0.00 | 0.00 | 0.00 | 56 | 1010.7 |
| 20260505035604 | 16 | 270 | 0.0 | 3.2 | 0.00 | 0.00 | 0.00 | 56 | 1010.7 |
| 20260505035104 | 16 | 273 | 1.6 | 8.0 | 0.00 | 0.00 | 0.00 | 56 | 1010.7 |
| 20260505034604 | 15 | 263 | 3.2 | 11.3 | 0.00 | 0.00 | 0.00 | 57 | 1010.7 |
| 20260505034104 | 15 | 266 | 1.6 | 4.8 | 0.00 | 0.00 | 0.00 | 57 | 1010.8 |